SBI729 UUDD-UWGG

Flight info

Callsign SBI729
Flight time 0h 51m
Altitude 33000
Route KOGOM4S KOGOM L94 USTOK USTOK2P
Aircraft A320/M-SDE3FGHIRWY/LB1

Departure

Time 2026-04-21 14:59
Airport Domodedovo International Airport (UUDD)

Arrival

Time 2026-04-21 15:50
Airport Nizhny Novgorod / Strigino International Airport (UWGG)
Time Latitude Longitude Altitude Speed Heading
2026-04-21 14:48 55.41153 37.89982 598 ft 0 kts 17°
2026-04-21 14:50 55.41156 37.89983 570 ft 2 kts 17°
2026-04-21 14:51 55.41157 37.89984 570 ft 2 kts 17°
2026-04-21 14:51 55.41141 37.89975 574 ft 2 kts 17°
2026-04-21 14:51 55.41124 37.89966 572 ft 3 kts 17°
2026-04-21 14:51 55.41107 37.89957 570 ft 3 kts 17°
2026-04-21 14:52 55.41090 37.89947 571 ft 3 kts 17°
2026-04-21 14:52 55.41073 37.89938 569 ft 2 kts 17°
2026-04-21 14:52 55.41064 37.89934 575 ft 2 kts 10°
2026-04-21 14:52 55.41050 37.89931 573 ft 2 kts 326°
2026-04-21 14:53 55.41041 37.89955 569 ft 3 kts 282°
2026-04-21 14:53 55.41040 37.89985 568 ft 2 kts 226°
2026-04-21 14:53 55.41040 37.89986 568 ft 0 kts 224°
2026-04-21 14:54 55.41032 37.89967 574 ft 4 kts 234°
2026-04-21 14:54 55.40999 37.89885 571 ft 11 kts 236°
2026-04-21 14:54 55.40950 37.89758 569 ft 15 kts 236°
2026-04-21 14:55 55.40886 37.89592 570 ft 14 kts 235°
2026-04-21 14:55 55.40816 37.89450 573 ft 13 kts 234°
2026-04-21 14:55 55.40761 37.89301 570 ft 15 kts 252°
2026-04-21 14:55 55.40811 37.89140 573 ft 18 kts 318°
2026-04-21 14:56 55.40919 37.89011 577 ft 18 kts 325°
2026-04-21 14:56 55.41028 37.88878 576 ft 20 kts 325°
2026-04-21 14:56 55.41144 37.88740 577 ft 21 kts 326°
2026-04-21 14:56 55.41269 37.88589 579 ft 22 kts 326°
2026-04-21 14:57 55.41383 37.88441 580 ft 14 kts 301°
2026-04-21 14:57 55.41374 37.88366 584 ft 0 kts 223°
2026-04-21 14:57 55.41362 37.88353 584 ft 3 kts 208°
2026-04-21 14:58 55.41308 37.88352 583 ft 15 kts 178°
2026-04-21 14:58 55.41210 37.88349 580 ft 13 kts 197°
2026-04-21 14:58 55.41155 37.88359 580 ft 0 kts 146°
2026-04-21 14:58 55.41150 37.88366 580 ft 6 kts 146°
2026-04-21 14:59 55.40922 37.88642 579 ft 77 kts 144°
2026-04-21 14:59 55.40299 37.89395 569 ft 137 kts 146°
2026-04-21 14:59 55.39397 37.90522 694 ft 169 kts 143°
2026-04-21 14:59 55.38414 37.91613 1442 ft 168 kts 154°
2026-04-21 15:00 55.37276 37.92275 2010 ft 180 kts 160°
2026-04-21 15:00 55.36014 37.92977 2332 ft 201 kts 160°
2026-04-21 15:00 55.34595 37.93773 2663 ft 226 kts 160°
2026-04-21 15:00 55.33039 37.94647 3101 ft 248 kts 161°
2026-04-21 15:01 55.31307 37.95017 3770 ft 259 kts 189°
2026-04-21 15:01 55.29722 37.93644 4274 ft 257 kts 230°
2026-04-21 15:01 55.28737 37.91075 5211 ft 254 kts 247°
2026-04-21 15:01 55.28036 37.88218 5826 ft 257 kts 255°
2026-04-21 15:02 55.27911 37.85198 5977 ft 246 kts 287°
2026-04-21 15:02 55.28605 37.82518 6032 ft 246 kts 312°
2026-04-21 15:02 55.29921 37.80562 6727 ft 248 kts 329°
2026-04-21 15:02 55.31348 37.78837 7586 ft 253 kts 328°
2026-04-21 15:03 55.32819 37.77074 7920 ft 255 kts 333°
2026-04-21 15:03 55.34434 37.75868 8001 ft 252 kts 349°
2026-04-21 15:03 55.36216 37.75506 8481 ft 261 kts
2026-04-21 15:03 55.38044 37.75387 9384 ft 264 kts
2026-04-21 15:04 55.39890 37.75246 10165 ft 267 kts
2026-04-21 15:04 55.41759 37.75093 10913 ft 271 kts
2026-04-21 15:04 55.43660 37.74935 11621 ft 276 kts 360°
2026-04-21 15:04 55.45584 37.74776 11838 ft 278 kts 360°
2026-04-21 15:05 55.47519 37.74617 11888 ft 278 kts 360°
2026-04-21 15:05 55.51351 37.74378 11889 ft 276 kts
2026-04-21 15:05 55.53225 37.75008 11888 ft 274 kts 20°
2026-04-21 15:06 55.54946 37.76431 11886 ft 273 kts 31°
2026-04-21 15:06 55.56587 37.78126 11886 ft 273 kts 31°
2026-04-21 15:06 55.58224 37.79810 11863 ft 271 kts 31°
2026-04-21 15:06 55.59852 37.81489 11869 ft 270 kts 31°
2026-04-21 15:07 55.61471 37.83164 11874 ft 270 kts 31°
2026-04-21 15:07 55.62952 37.85188 11875 ft 269 kts 48°
2026-04-21 15:07 55.63936 37.88000 11874 ft 272 kts 68°
2026-04-21 15:07 55.64286 37.91408 12055 ft 296 kts 88°
2026-04-21 15:08 55.63949 37.95099 12576 ft 310 kts 99°
2026-04-21 15:08 55.63470 37.98861 12834 ft 315 kts 99°
2026-04-21 15:08 55.62986 38.02638 12865 ft 315 kts 99°
2026-04-21 15:08 55.62498 38.06420 12865 ft 315 kts 99°
2026-04-21 15:09 55.62009 38.10202 12868 ft 315 kts 99°
2026-04-21 15:09 55.61524 38.13979 12866 ft 315 kts 99°
2026-04-21 15:09 55.61044 38.17768 13105 ft 319 kts 99°
2026-04-21 15:09 55.60562 38.21612 13714 ft 322 kts 99°
2026-04-21 15:10 55.60073 38.25476 13839 ft 322 kts 99°
2026-04-21 15:10 55.59579 38.29324 13861 ft 321 kts 99°
2026-04-21 15:10 55.59082 38.33182 13866 ft 321 kts 99°
2026-04-21 15:10 55.58586 38.37027 13866 ft 321 kts 99°
2026-04-21 15:11 55.58185 38.40901 13868 ft 319 kts 91°
2026-04-21 15:11 55.58240 38.44726 13871 ft 315 kts 79°
2026-04-21 15:11 55.58783 38.48469 14138 ft 316 kts 66°
2026-04-21 15:11 55.59765 38.51939 14822 ft 316 kts 57°
2026-04-21 15:12 55.60904 38.55361 15437 ft 321 kts 58°
2026-04-21 15:12 55.62026 38.58758 15812 ft 327 kts 57°
2026-04-21 15:12 55.63171 38.62237 15874 ft 328 kts 58°
2026-04-21 15:12 55.64342 38.65803 16394 ft 332 kts 58°
2026-04-21 15:13 55.65509 38.69345 16800 ft 334 kts 57°
2026-04-21 15:13 55.66666 38.72853 16866 ft 333 kts 57°
2026-04-21 15:13 55.67832 38.76395 16867 ft 333 kts 57°
2026-04-21 15:13 55.68995 38.79935 16867 ft 332 kts 57°
2026-04-21 15:14 55.70156 38.83476 16869 ft 332 kts 57°
2026-04-21 15:14 55.71319 38.87015 16866 ft 332 kts 57°
2026-04-21 15:14 55.72482 38.90558 16858 ft 332 kts 57°
2026-04-21 15:14 55.73766 38.93947 16878 ft 331 kts 48°
2026-04-21 15:15 55.75347 38.96939 17383 ft 333 kts 44°
2026-04-21 15:15 55.76952 38.99925 18032 ft 336 kts 44°
2026-04-21 15:15 55.78567 39.02974 18582 ft 340 kts 45°
2026-04-21 15:15 55.80184 39.06046 19114 ft 343 kts 45°
2026-04-21 15:16 55.81824 39.09161 19645 ft 346 kts 45°
2026-04-21 15:16 55.83478 39.12301 20183 ft 349 kts 45°
2026-04-21 15:16 55.85003 39.15705 20680 ft 356 kts 54°
2026-04-21 15:16 55.86218 39.19647 20850 ft 371 kts 61°
2026-04-21 15:17 55.87376 39.23806 21186 ft 378 kts 61°
2026-04-21 15:17 55.88548 39.28021 21648 ft 382 kts 61°
2026-04-21 15:17 55.89716 39.32224 22114 ft 385 kts 61°
2026-04-21 15:17 55.90907 39.36516 22588 ft 388 kts 61°
2026-04-21 15:18 55.92108 39.40847 23051 ft 391 kts 61°
2026-04-21 15:18 55.93336 39.45269 23481 ft 394 kts 62°
2026-04-21 15:18 55.94538 39.49609 23877 ft 397 kts 62°
2026-04-21 15:18 55.95761 39.54049 24285 ft 399 kts 62°
2026-04-21 15:19 55.96984 39.58507 24699 ft 400 kts 62°
2026-04-21 15:19 55.98207 39.62973 25106 ft 402 kts 62°
2026-04-21 15:19 55.99441 39.67471 25487 ft 404 kts 62°
2026-04-21 15:19 56.00716 39.71960 25859 ft 406 kts 60°
2026-04-21 15:20 56.02034 39.76427 26235 ft 408 kts 60°
2026-04-21 15:20 56.03380 39.80903 26604 ft 409 kts 60°
2026-04-21 15:20 56.04737 39.85402 26972 ft 411 kts 60°
2026-04-21 15:20 56.06089 39.89924 27333 ft 413 kts 60°
2026-04-21 15:21 56.07442 39.94486 27703 ft 415 kts 60°
2026-04-21 15:21 56.08792 39.99076 28060 ft 417 kts 60°
2026-04-21 15:21 56.10140 40.03679 28414 ft 419 kts 61°
2026-04-21 15:21 56.11492 40.08328 28761 ft 421 kts 61°
2026-04-21 15:22 56.12849 40.12996 29112 ft 423 kts 61°
2026-04-21 15:22 56.14214 40.17691 29411 ft 426 kts 60°
2026-04-21 15:22 56.15587 40.22425 29718 ft 428 kts 61°
2026-04-21 15:22 56.16956 40.27165 29837 ft 424 kts 61°
2026-04-21 15:23 56.18286 40.31787 29855 ft 409 kts 61°
2026-04-21 15:23 56.19579 40.36284 29847 ft 403 kts 61°
2026-04-21 15:23 56.22137 40.45182 29842 ft 400 kts 61°
2026-04-21 15:24 56.24665 40.54079 29844 ft 400 kts 65°
2026-04-21 15:24 56.26036 40.63693 29853 ft 404 kts 84°
2026-04-21 15:25 56.25812 40.73839 29843 ft 408 kts 92°
2026-04-21 15:25 56.25398 40.84025 29836 ft 408 kts 92°
2026-04-21 15:26 56.24978 40.94200 29841 ft 408 kts 92°
2026-04-21 15:26 56.24550 41.04388 29837 ft 408 kts 92°
2026-04-21 15:27 56.24332 41.09478 29727 ft 406 kts 92°
2026-04-21 15:27 56.24113 41.14492 29430 ft 397 kts 92°
2026-04-21 15:27 56.23897 41.19395 29157 ft 390 kts 92°
2026-04-21 15:27 56.23683 41.24228 28869 ft 386 kts 92°
2026-04-21 15:28 56.23467 41.29035 28579 ft 384 kts 92°
2026-04-21 15:28 56.23252 41.33808 28301 ft 383 kts 92°
2026-04-21 15:28 56.23036 41.38574 28028 ft 382 kts 92°
2026-04-21 15:28 56.22820 41.43322 27745 ft 381 kts 92°
2026-04-21 15:29 56.22602 41.48024 27436 ft 374 kts 92°
2026-04-21 15:29 56.22382 41.52650 27024 ft 370 kts 92°
2026-04-21 15:29 56.22163 41.57237 26609 ft 367 kts 92°
2026-04-21 15:29 56.21947 41.61786 26193 ft 363 kts 92°
2026-04-21 15:30 56.21733 41.66293 25771 ft 361 kts 92°
2026-04-21 15:30 56.21519 41.70772 25345 ft 359 kts 92°
2026-04-21 15:30 56.21305 41.75231 24917 ft 358 kts 92°
2026-04-21 15:30 56.21092 41.79617 24484 ft 357 kts 92°
2026-04-21 15:31 56.20874 41.84054 24035 ft 356 kts 92°
2026-04-21 15:31 56.20656 41.88528 23584 ft 355 kts 92°
2026-04-21 15:31 56.20438 41.92959 23085 ft 355 kts 92°
2026-04-21 15:31 56.20218 41.97363 22641 ft 353 kts 92°
2026-04-21 15:32 56.19994 42.01739 22202 ft 351 kts 92°
2026-04-21 15:32 56.19772 42.06046 21773 ft 349 kts 92°
2026-04-21 15:32 56.19550 42.10372 21340 ft 347 kts 92°
2026-04-21 15:32 56.19326 42.14685 20914 ft 346 kts 92°
2026-04-21 15:33 56.19100 42.18973 20494 ft 344 kts 93°
2026-04-21 15:33 56.18873 42.23253 20069 ft 343 kts 93°
2026-04-21 15:33 56.18644 42.27511 19654 ft 343 kts 93°
2026-04-21 15:33 56.18413 42.31762 19238 ft 342 kts 93°
2026-04-21 15:34 56.18181 42.36012 18826 ft 341 kts 93°
2026-04-21 15:34 56.17947 42.40251 18411 ft 341 kts 93°
2026-04-21 15:34 56.17713 42.44488 17984 ft 341 kts 93°
2026-04-21 15:34 56.17479 42.48708 17556 ft 339 kts 93°
2026-04-21 15:35 56.17243 42.52902 17150 ft 337 kts 93°
2026-04-21 15:35 56.17007 42.57078 16765 ft 336 kts 93°
2026-04-21 15:35 56.16773 42.61241 16363 ft 334 kts 93°
2026-04-21 15:35 56.16537 42.65380 15955 ft 333 kts 93°
2026-04-21 15:36 56.16299 42.69505 15567 ft 331 kts 93°
2026-04-21 15:36 56.16061 42.73559 15185 ft 330 kts 93°
2026-04-21 15:36 56.15820 42.77694 14792 ft 329 kts 93°
2026-04-21 15:36 56.15587 42.81659 14414 ft 318 kts 93°
2026-04-21 15:37 56.15355 42.85541 14057 ft 309 kts 93°
2026-04-21 15:37 56.15128 42.89376 13692 ft 309 kts 92°
2026-04-21 15:37 56.14901 42.93208 13298 ft 309 kts 92°
2026-04-21 15:37 56.14673 42.97025 12927 ft 307 kts 92°
2026-04-21 15:38 56.14444 43.00826 12550 ft 305 kts 92°
2026-04-21 15:38 56.14213 43.04602 12187 ft 303 kts 92°
2026-04-21 15:38 56.13982 43.08354 11812 ft 302 kts 92°
2026-04-21 15:38 56.13756 43.12080 11442 ft 301 kts 92°
2026-04-21 15:39 56.13531 43.15800 11068 ft 299 kts 92°
2026-04-21 15:39 56.13091 43.19416 10681 ft 295 kts 106°
2026-04-21 15:39 56.12169 43.22673 10319 ft 295 kts 120°
2026-04-21 15:39 56.10808 43.25458 9936 ft 300 kts 135°
2026-04-21 15:40 56.09218 43.27899 9510 ft 301 kts 135°
2026-04-21 15:40 56.08142 43.29551 9227 ft 301 kts 135°
2026-04-21 15:40 56.06576 43.31959 8819 ft 300 kts 135°
2026-04-21 15:40 56.05006 43.34369 8411 ft 293 kts 134°
2026-04-21 15:41 56.03470 43.36724 8000 ft 290 kts 134°
2026-04-21 15:41 56.01937 43.39078 7582 ft 291 kts 133°
2026-04-21 15:41 56.00403 43.41437 7155 ft 291 kts 132°
2026-04-21 15:41 55.99077 43.44091 6733 ft 283 kts 116°
2026-04-21 15:42 55.98192 43.47157 6307 ft 273 kts 101°
2026-04-21 15:42 55.97730 43.50331 5870 ft 259 kts 93°
2026-04-21 15:42 55.97346 43.53468 5537 ft 256 kts 94°
2026-04-21 15:42 55.96963 43.56546 5187 ft 253 kts 93°
2026-04-21 15:43 55.96583 43.59619 4787 ft 254 kts 94°
2026-04-21 15:43 55.96225 43.62697 4365 ft 250 kts 88°
2026-04-21 15:43 55.96394 43.65566 4255 ft 218 kts 63°
2026-04-21 15:43 55.97104 43.67736 4194 ft 194 kts 42°
2026-04-21 15:44 55.98127 43.69122 4129 ft 178 kts 24°
2026-04-21 15:44 55.99265 43.69755 4046 ft 167 kts 13°
2026-04-21 15:44 56.00386 43.70198 3973 ft 164 kts 13°
2026-04-21 15:44 56.01475 43.70637 3913 ft 154 kts 14°
2026-04-21 15:45 56.02472 43.71054 3823 ft 142 kts 14°
2026-04-21 15:45 56.03424 43.71434 3757 ft 139 kts 13°
2026-04-21 15:45 56.04362 43.71790 3716 ft 137 kts 13°
2026-04-21 15:45 56.05294 43.72136 3623 ft 137 kts 13°
2026-04-21 15:46 56.06228 43.72478 3467 ft 137 kts 13°
2026-04-21 15:46 56.07156 43.72816 3294 ft 136 kts 14°
2026-04-21 15:46 56.08082 43.73153 3106 ft 136 kts 14°
2026-04-21 15:46 56.08994 43.73484 2924 ft 136 kts 14°
2026-04-21 15:47 56.09918 43.73820 2726 ft 135 kts 14°
2026-04-21 15:47 56.10839 43.74155 2544 ft 135 kts 14°
2026-04-21 15:47 56.11755 43.74487 2349 ft 135 kts 14°
2026-04-21 15:47 56.12668 43.74820 2193 ft 133 kts 13°
2026-04-21 15:48 56.13574 43.75149 1982 ft 132 kts 13°
2026-04-21 15:48 56.14474 43.75477 1786 ft 132 kts 12°
2026-04-21 15:48 56.15369 43.75802 1596 ft 129 kts 12°
2026-04-21 15:48 56.16244 43.76121 1413 ft 128 kts 12°
2026-04-21 15:49 56.17114 43.76438 1222 ft 128 kts 12°
2026-04-21 15:49 56.17986 43.76756 1031 ft 129 kts 11°
2026-04-21 15:49 56.18881 43.77066 836 ft 132 kts 10°
2026-04-21 15:49 56.19781 43.77410 662 ft 132 kts
2026-04-21 15:50 56.20689 43.77733 487 ft 134 kts
2026-04-21 15:50 56.21607 43.78071 363 ft 135 kts
2026-04-21 15:50 56.22497 43.78398 259 ft 113 kts 11°
2026-04-21 15:50 56.22976 43.78576 263 ft 39 kts 11°
2026-04-21 15:51 56.23230 43.78666 262 ft 36 kts 11°
2026-04-21 15:51 56.23428 43.78742 260 ft 29 kts 12°
2026-04-21 15:51 56.23583 43.78815 258 ft 14 kts 49°
2026-04-21 15:51 56.23577 43.78950 260 ft 9 kts 116°
2026-04-21 15:52 56.23548 43.79039 261 ft 8 kts 121°
2026-04-21 15:52 56.23523 43.79113 261 ft 6 kts 121°
2026-04-21 15:52 56.23501 43.79177 261 ft 7 kts 121°
2026-04-21 15:52 56.23469 43.79228 261 ft 6 kts 170°
2026-04-21 15:53 56.23415 43.79212 261 ft 9 kts 191°
2026-04-21 15:53 56.23336 43.79182 261 ft 15 kts 192°
2026-04-21 15:53 56.23217 43.79139 260 ft 20 kts 191°
2026-04-21 15:53 56.23074 43.79087 260 ft 22 kts 192°
2026-04-21 15:54 56.22942 43.79039 260 ft 17 kts 191°
2026-04-21 15:54 56.22815 43.78994 260 ft 20 kts 191°
2026-04-21 15:54 56.22682 43.78946 260 ft 19 kts 191°
2026-04-21 15:54 56.22584 43.78918 260 ft 11 kts 178°
2026-04-21 15:55 56.22523 43.79009 260 ft 13 kts 112°
2026-04-21 15:55 56.22449 43.79030 260 ft 11 kts 192°
2026-04-21 15:55 56.22396 43.78982 260 ft 8 kts 244°
2026-04-21 15:55 56.22397 43.78919 260 ft 3 kts 283°
2026-04-21 15:56 56.22399 43.78908 260 ft 0 kts 283°